TimeCDT,TemperatureF,Dew PointF,Humidity,Sea Level PressureIn,VisibilityMPH,Wind Direction,Wind SpeedMPH,Gust SpeedMPH,PrecipitationIn,Events,Conditions,WindDirDegrees,DateUTC
12:15 AM,36.7,17.4,46,30.26,10.0,Calm,Calm,-,N/A,,Clear,0,2013-04-03 05:15:00
12:35 AM,37.2,16.9,44,30.26,10.0,North,4.6,-,N/A,,Clear,10,2013-04-03 05:35:00
12:55 AM,37.0,17.6,45,30.26,10.0,Calm,Calm,-,N/A,,Clear,0,2013-04-03 05:55:00
1:15 AM,36.5,18.1,47,30.26,10.0,NNE,4.6,-,N/A,,Clear,30,2013-04-03 06:15:00
1:35 AM,37.4,17.4,44,30.26,10.0,NNE,5.8,-,N/A,,Clear,20,2013-04-03 06:35:00
1:55 AM,37.6,17.6,44,30.26,10.0,NNE,4.6,-,N/A,,Clear,30,2013-04-03 06:55:00
2:15 AM,37.2,17.6,45,30.26,10.0,NE,5.8,-,N/A,,Clear,40,2013-04-03 07:15:00
2:35 AM,36.9,18.1,47,30.26,10.0,NE,3.5,-,N/A,,Clear,40,2013-04-03 07:35:00
2:55 AM,36.5,18.3,48,30.26,10.0,NE,3.5,-,N/A,,Clear,50,2013-04-03 07:55:00
3:15 AM,35.6,18.7,50,30.26,10.0,NE,3.5,-,N/A,,Clear,40,2013-04-03 08:15:00
3:35 AM,35.2,18.9,51,30.26,10.0,NE,5.8,-,N/A,,Clear,40,2013-04-03 08:35:00
3:55 AM,34.9,18.9,52,30.25,10.0,NE,5.8,-,N/A,,Clear,40,2013-04-03 08:55:00
4:15 AM,34.3,18.9,53,30.24,10.0,NE,5.8,-,N/A,,Clear,40,2013-04-03 09:15:00
4:35 AM,34.0,18.7,54,30.24,10.0,NE,4.6,-,N/A,,Clear,50,2013-04-03 09:35:00
4:55 AM,33.3,19.0,56,30.24,10.0,NE,4.6,-,N/A,,Clear,50,2013-04-03 09:55:00
5:15 AM,32.5,19.4,58,30.25,10.0,Calm,Calm,-,N/A,,Clear,0,2013-04-03 10:15:00
5:35 AM,31.8,19.6,61,30.27,10.0,East,3.5,-,N/A,,Clear,90,2013-04-03 10:35:00
5:55 AM,31.6,19.9,62,30.29,10.0,Calm,Calm,-,N/A,,Clear,0,2013-04-03 10:55:00
6:15 AM,31.8,19.4,60,30.29,10.0,Calm,Calm,-,N/A,,Clear,0,2013-04-03 11:15:00
6:35 AM,30.9,19.6,63,30.31,10.0,Calm,Calm,-,N/A,,Clear,0,2013-04-03 11:35:00
6:55 AM,30.7,19.8,64,30.31,10.0,Calm,Calm,-,N/A,,Clear,0,2013-04-03 11:55:00
7:15 AM,31.3,21.0,66,30.32,10.0,Calm,Calm,-,N/A,,Clear,0,2013-04-03 12:15:00
7:35 AM,33.4,21.7,62,30.33,10.0,ENE,3.5,-,N/A,,Clear,70,2013-04-03 12:35:00
7:55 AM,37.0,20.5,51,30.33,10.0,East,6.9,-,N/A,,Clear,80,2013-04-03 12:55:00
8:15 AM,39.6,20.1,46,30.34,10.0,East,9.2,-,N/A,,Clear,90,2013-04-03 13:15:00
8:35 AM,41.5,20.3,43,30.35,10.0,East,9.2,-,N/A,,Clear,100,2013-04-03 13:35:00
8:55 AM,43.0,19.9,40,30.34,10.0,ENE,10.4,16.1,N/A,,Clear,70,2013-04-03 13:55:00
9:15 AM,44.2,18.9,36,30.34,10.0,ENE,13.8,18.4,N/A,,Clear,70,2013-04-03 14:15:00
9:35 AM,45.3,18.7,35,30.33,10.0,East,15.0,-,N/A,,Clear,80,2013-04-03 14:35:00
9:55 AM,46.2,17.8,32,30.33,10.0,NE,12.7,20.7,N/A,,Clear,50,2013-04-03 14:55:00
10:15 AM,46.6,17.6,32,30.32,10.0,ENE,15.0,20.7,N/A,,Clear,70,2013-04-03 15:15:00
10:35 AM,47.3,19.2,33,30.32,10.0,East,10.4,-,N/A,,Clear,80,2013-04-03 15:35:00
10:55 AM,48.0,19.6,32,30.32,10.0,NE,10.4,19.6,N/A,,Clear,40,2013-04-03 15:55:00
11:15 AM,48.4,19.6,32,30.32,10.0,NE,10.4,17.3,N/A,,Clear,50,2013-04-03 16:15:00
11:35 AM,49.1,19.9,32,30.31,10.0,ENE,15.0,20.7,N/A,,Clear,70,2013-04-03 16:35:00
11:55 AM,50.0,20.1,31,30.31,10.0,ENE,11.5,19.6,N/A,,Clear,60,2013-04-03 16:55:00
12:15 PM,50.7,20.1,30,30.31,10.0,ENE,11.5,21.9,N/A,,Clear,70,2013-04-03 17:15:00
12:35 PM,51.3,20.1,29,30.30,10.0,ENE,6.9,-,N/A,,Clear,60,2013-04-03 17:35:00
12:55 PM,51.6,20.1,29,30.30,10.0,NE,8.1,-,N/A,,Clear,50,2013-04-03 17:55:00
1:15 PM,52.0,18.9,27,30.29,10.0,ENE,11.5,19.6,N/A,,Clear,70,2013-04-03 18:15:00
1:35 PM,52.5,20.1,28,30.29,10.0,NE,8.1,16.1,N/A,,Clear,40,2013-04-03 18:35:00
2:35 PM,52.5,19.8,28,30.29,10.0,NNE,8.1,-,N/A,,Clear,30,2013-04-03 19:35:00
2:55 PM,53.1,20.5,28,30.29,10.0,NE,13.8,18.4,N/A,,Clear,40,2013-04-03 19:55:00
3:15 PM,53.2,20.7,28,30.29,10.0,NE,9.2,-,N/A,,Clear,50,2013-04-03 20:15:00
3:35 PM,52.7,20.7,29,30.29,10.0,NE,6.9,-,N/A,,Clear,40,2013-04-03 20:35:00
3:55 PM,52.3,20.8,29,30.28,10.0,ENE,11.5,-,N/A,,Clear,60,2013-04-03 20:55:00
4:15 PM,52.0,21.2,30,30.26,10.0,NE,9.2,-,N/A,,Clear,50,2013-04-03 21:15:00
4:35 PM,51.6,21.7,31,30.26,10.0,NE,8.1,-,N/A,,Clear,50,2013-04-03 21:35:00
4:55 PM,50.9,21.9,32,30.25,10.0,NE,9.2,-,N/A,,Clear,50,2013-04-03 21:55:00
5:15 PM,50.4,21.2,32,30.24,10.0,NE,9.2,16.1,N/A,,Clear,40,2013-04-03 22:15:00
5:35 PM,50.0,20.8,32,30.24,10.0,NE,9.2,-,N/A,,Clear,40,2013-04-03 22:35:00
5:55 PM,49.3,21.4,33,30.24,10.0,NE,8.1,-,N/A,,Clear,40,2013-04-03 22:55:00
6:15 PM,48.6,21.2,34,30.23,10.0,NE,8.1,-,N/A,,Clear,50,2013-04-03 23:15:00
6:35 PM,47.8,21.2,35,30.23,10.0,NE,8.1,-,N/A,,Clear,50,2013-04-03 23:35:00
6:55 PM,46.9,21.6,37,30.23,10.0,NE,6.9,-,N/A,,Clear,40,2013-04-03 23:55:00
7:15 PM,46.2,21.2,37,30.23,10.0,NE,5.8,-,N/A,,Clear,40,2013-04-04 00:15:00
7:35 PM,45.3,21.6,39,30.23,10.0,NE,4.6,-,N/A,,Clear,50,2013-04-04 00:35:00
7:55 PM,44.4,22.1,41,30.23,10.0,NE,5.8,-,N/A,,Clear,50,2013-04-04 00:55:00
8:15 PM,44.1,21.9,42,30.23,10.0,NE,5.8,-,N/A,,Clear,40,2013-04-04 01:15:00
8:35 PM,43.7,21.7,42,30.24,10.0,NE,5.8,-,N/A,,Clear,40,2013-04-04 01:35:00
8:55 PM,43.7,21.6,41,30.25,10.0,NE,5.8,-,N/A,,Clear,50,2013-04-04 01:55:00
9:15 PM,43.0,22.1,44,30.25,10.0,NE,5.8,-,N/A,,Clear,50,2013-04-04 02:15:00
9:35 PM,42.4,22.5,45,30.25,10.0,NE,5.8,-,N/A,,Clear,50,2013-04-04 02:35:00
9:55 PM,42.1,23.0,47,30.24,10.0,ENE,4.6,-,N/A,,Clear,60,2013-04-04 02:55:00
10:15 PM,41.9,23.2,47,30.23,10.0,NE,5.8,-,N/A,,Clear,50,2013-04-04 03:15:00
10:35 PM,41.9,22.5,46,30.22,10.0,NE,5.8,-,N/A,,Clear,50,2013-04-04 03:35:00
10:55 PM,41.9,22.3,46,30.21,10.0,NE,5.8,-,N/A,,Clear,50,2013-04-04 03:55:00
11:15 PM,41.9,21.9,45,30.22,10.0,NE,4.6,-,N/A,,Clear,50,2013-04-04 04:15:00
11:35 PM,41.7,21.7,45,30.21,10.0,NE,6.9,-,N/A,,Clear,50,2013-04-04 04:35:00
11:55 PM,41.4,21.4,45,30.21,10.0,NE,4.6,-,N/A,,Clear,50,2013-04-04 04:55:00